Location: General Nathan Twining Observatory
(34.5931°N, 106.8201°W)
Time: 07:59:05
(UTC-06:00)

ADEOS II - Visible Passes

Search period start: 28 March 2017 00:00
Search period end: 07 April 2017 00:00
Orbit: 800 x 801 km, 98.4° (Epoch: 26 March)

Date Brightness Start Highest point End Pass type
(mag) Time Alt. Az. Time Alt. Az. Time Alt. Az.
28 Mar 2.0 04:59:00 10° NNE 05:04:17 83° ESE 05:06:32 35° S visible
29 Mar 3.0 04:32:50 10° NNE 04:37:51 45° E 04:39:58 30° SSE visible
29 Mar 3.5 06:13:33 10° NNW 06:17:12 19° WNW 06:20:50 10° WSW visible
30 Mar 4.0 04:07:06 10° NE 04:11:21 25° E 04:13:24 19° SE visible
30 Mar 2.8 05:46:22 10° N 05:51:03 34° WNW 05:54:22 17° SW visible
31 Mar 4.7 03:42:20 10° ENE 03:44:44 13° E 03:46:50 11° ESE visible
31 Mar 2.1 05:19:37 10° N 05:24:48 61° WNW 05:27:47 25° SSW visible
01 Apr 2.2 04:53:11 10° NNE 04:58:27 74° ESE 05:01:13 29° S visible
02 Apr 3.2 04:27:06 10° NNE 04:32:01 39° E 04:34:38 24° SSE visible
02 Apr 3.4 06:07:31 10° NNW 06:11:25 22° WNW 06:15:20 10° WSW visible
03 Apr 4.2 04:01:29 10° NE 04:05:29 22° E 04:08:04 15° SE visible
03 Apr 2.6 05:40:26 10° N 05:45:16 38° WNW 05:49:01 16° SW visible
04 Apr 4.8 03:37:15 10° ENE 03:38:51 11° E 03:40:27 10° ESE visible
04 Apr 2.0 05:13:46 10° N 05:18:59 70° WNW 05:22:26 22° SSW visible
05 Apr 2.4 04:47:24 10° NNE 04:52:38 65° ESE 04:55:51 23° S visible
06 Apr 3.5 04:21:22 10° NNE 04:26:10 35° E 04:29:16 19° SSE visible
06 Apr 3.2 06:01:30 10° NNW 06:05:40 24° WNW 06:09:48 10° WSW visible
